Find Starlink 33863

NORAD ID: 63864 Int'l Des: 2025-094 Owner: SPXS Country: US Constellation: starlink operational
LEOCIRCULAR

当前视图

正在加载3D地球...

About Starlink 33863

Starlink 33863 (NORAD 63864) is a starlink constellation satellite (v2 mini) launched May 10, 2025 by SPXS of US. It operates in LEO, CIRCULAR orbit with a mass of 575.00 kg.

即将过境

Passes for default location (London). Set your location on the main map for personalized predictions.

高度历史

Loading altitude history...

两行轨道根数

1 63864U 25094A 26263.01201539 .00007219 00000-0 25530-3 0 9994
2 63864 70.0003 102.4038 0003198 268.2080 91.8728 15.29583168 76369
Epoch: Sep 20, 2026 • Age: 20 hours

当前状态

高度 490.5 km
远地点 / 近地点 N/A
速度 7.62 km/s
星下点 -40.37°S, 134.97°E
发射日期 May 10, 2025
运行时间 1.3 years
类型 internet

技术详情

分类 Payload
质量 575.00 kg
干质量 530.00 kg
长度 0.30 m
跨度 29.00 m
形状 ? Box + pan
制造商 SPXS
平台类型 Starlink V2MO
阶段状态 In Orbit
所有者/国家 SPXS/US

Most Searched